This is the latest recevied weather packets stored in our database for station/object SV8FES. If no packets are shown the sender has not sent any weather packets the latest 10 day(s).
| Time | Temp. | Humidity | Pressure | Rain* | Wind** | Luminosity | Snow |
|---|---|---|---|---|---|---|---|
| 1787827831 | 31.11° C | 55% | 1013.8 hPa | 0 mm | - | 812 W/m² | - |
| 1787827771 | 31.11° C | 56% | 1013.9 hPa | 0 mm | - | 807 W/m² | - |
| 1787827710 | 31.11° C | 55% | 1013.9 hPa | 0 mm | - | 809 W/m² | - |
| 1787827650 | 31.11° C | 55% | 1013.9 hPa | 0 mm | - | 810 W/m² | - |
| 1787827590 | 31.11° C | 56% | 1013.7 hPa | 0 mm | - | 814 W/m² | - |
| 1787827533 | 31.11° C | 56% | 1013.9 hPa | 0 mm | - | 812 W/m² | - |
| 1787827471 | 30.56° C | 57% | 1013.9 hPa | 0 mm | - | 814 W/m² | - |
| 1787827410 | 30.56° C | 57% | 1013.8 hPa | 0 mm | - | 812 W/m² | - |
| 1787827354 | 30.56° C | 57% | 1013.8 hPa | 0 mm | - | 814 W/m² | - |
| 1787827293 | 30.56° C | 56% | 1013.8 hPa | 0 mm | - | 812 W/m² | - |
| 1787827231 | 30.56° C | 56% | 1013.8 hPa | 0 mm | - | 812 W/m² | - |
| 1787827170 | 30.56° C | 58% | 1014 hPa | 0 mm | - | 812 W/m² | - |
| 1787827111 | 30.56° C | 58% | 1013.9 hPa | 0 mm | - | 812 W/m² | - |
| 1787827050 | 30.56° C | 58% | 1013.8 hPa | 0 mm | - | 800 W/m² | - |
| 1787826992 | 30° C | 58% | 1013.9 hPa | 0 mm | - | 770 W/m² | - |
| 1787826930 | 30° C | 60% | 1014 hPa | 0 mm | - | 519 W/m² | - |
| 1787826872 | 30° C | 60% | 1013.9 hPa | 0 mm | - | 519 W/m² | - |
| 1787826810 | 30° C | 60% | 1013.9 hPa | 0 mm | - | 454 W/m² | - |
| 1787826753 | 29.44° C | 61% | 1014 hPa | 0 mm | - | 388 W/m² | - |
| 1787826691 | 29.44° C | 61% | 1013.9 hPa | 0 mm | - | 373 W/m² | - |
| 1787826631 | 29.44° C | 61% | 1014 hPa | 0 mm | - | 353 W/m² | - |
| 1787826570 | 29.44° C | 61% | 1013.8 hPa | 0 mm | - | 364 W/m² | - |
| 1787826512 | 30° C | 61% | 1014 hPa | 0 mm | - | 397 W/m² | - |
| 1787826452 | 30° C | 61% | 1014 hPa | 0 mm | - | 404 W/m² | - |
| 1787826392 | 30° C | 61% | 1014 hPa | 0 mm | - | 483 W/m² | - |
* Rain latest hour (hover to see other rain measurements)
** Current wind speed in m/s (hover to see current wind gust speed)